Regional Weather Roundup
Issued by NWS

Home | Current Version | Previous Version | Graphics & Text | Print | Product List | Glossary On
Versions: 1 2 3 4 5 6 7 8 9 10 11 12 13 14 15 16 17 18 19 20 21 22 23 24 25 26 27 28 29 30 31 32 33 34 35 36 37 38 39 40 41 42 43 44 45 46 47 48 49 50
289
ASUS45 KBOU 230810
RWRCO

WEATHER ROUNDUP FOR COLORADO
NATIONAL WEATHER SERVICE DENVER/BOULDER CO
100 AM MST TUE JAN 23 2018

NOTE: "FAIR" INDICATES FEW OR NO CLOUDS BELOW 12000 FEET WITH NO
SIGNIFICANT WEATHER AND/OR OBSTRUCTIONS TO VISIBILITY.

COZ001>005-013-030-031-230900-
...NORTHWEST COLORADO...

CITY           SKY/WX    TMP DP  RH WIND       PRES   REMARKS
CRAIG          CLOUDY    16  10  77 CALM      30.25F
HAYDEN         FLURRIES  17  12  80 E8        30.25F WCI   7
MEEKER         CLOUDY    18  14  84 CALM      30.25F
RABBIT EARS PA LGT SNOW N/A N/A N/A W10G17    30.08F VSB 3/4
STEAMBOAT SPGS CLOUDY    10   8  89 CALM      30.23F
WALDEN         MOCLDY    18   9  68 SW18G24   30.13S WCI   2
$$

COZ006>008-011-230900-
...WEST CENTRAL VALLEYS...

CITY           SKY/WX    TMP DP  RH WIND       PRES   REMARKS
GRAND JUNCTION FAIR      16  14  92 NE5       30.31F WCI   9
MONTROSE       CLOUDY    18  11  74 SE7       30.33S WCI   9
EAGLE          CLOUDY    18  13  80 E6        30.28S WCI  10
RIFLE          CLOUDY    25  19  78 CALM      30.30F
DELTA          CLOUDY    24  14  67 CALM      30.32F
NUCLA          FAIR      16   9  73 SE8       30.33F WCI   5
$$

COZ017>023-064>068-230900-
...SOUTHWEST COLORADO...

CITY           SKY/WX    TMP DP  RH WIND       PRES   REMARKS
DURANGO        FAIR       9   6  88 N5        30.23F WCI   1
CORTEZ         FAIR      10   6  84 E6        30.28S WCI   0
PAGOSA SPRINGS FAIR       3   0  86 CALM      30.22S
TELLURIDE      FAIR      10   4  77 SE6       30.23S WCI   1
WOLF CREEK PAS FAIR      10  -9  40 SW7       30.18S WCI   0
$$

COZ009-010-012-014-032>034-037-058>063-230900-
...CENTRAL COLORADO...

CITY           SKY/WX    TMP DP  RH WIND       PRES   REMARKS
ASPEN          LGT SNOW  16  11  80 SW5       30.22S WCI   9
BUENA VISTA    FAIR      19   4  53 NW15      30.13S WCI   5
COPPER MTN     NOT AVBL
BERTHOUD PASS  HVY SNOW   1  -9  60 MISG      29.92F VSB 1/4
COTTONWOOD PAS FAIR      23   9  54 NW6       30.09R WCI  16
GUNNISON       FAIR       5  -1  76 NE3       30.26S
KREMMLING      CLOUDY    14   9  79 CALM      30.23S
LEADVILLE      CLOUDY     4  -1  80 NE3       30.12S
MONARCH PASS   FAIR       5   1  85 W32G39    30.16F WCI -20
SALIDA         FAIR      14   4  64 CALM      30.22S
SUNLIGHT       LGT SNOW  10   5  79 W6        30.20S WCI   1
WILKERSON PASS FAIR      10   0  61 NW7       30.08S WCI   0
$$

COZ069>075-230900-
...SAN LUIS VALLEY/SANGRE DE CRISTO MOUNTAINS...

CITY           SKY/WX    TMP DP  RH WIND       PRES   REMARKS
ALAMOSA        FAIR      -4  -9  79 CALM      30.19F
DEL NORTE      FAIR       8  -2  63 W12       30.19S WCI  -7
LA VETA PASS   FAIR      10   1  67 SW22G30     N/A  WCI  -9
SAGUACHE       FAIR       7  -2  66 NW7       30.20R WCI  -5
$$

COZ035-036-038>040-230900-
...NORTHERN COLORADO FRONT RANGE...

CITY           SKY/WX    TMP DP  RH WIND       PRES   REMARKS
DENVER INTL AP MOCLDY    31  12  45 W9        30.10R WCI  23
DMNS CITY PARK NOT AVBL
AURORA         MOCLDY    28  10  46 SW7       30.10R WCI  21
FRONT RANGE AP CLOUDY    30  16  54 W10       30.10S WCI  21
ERIE MUNI ARPT FAIR      32  11  40 CALM      30.16S
BOULDER MUN AP FAIR      34  10  37 NW3       30.10R
CENTENNIAL     CLOUDY    30   9  41 W5        30.10R WCI  25
BROOMFIELD     FAIR      34  10  37 W18       30.10S WCI  23
FORT COLLINS   FAIR      27  15  61 CALM      30.12R
LONGMONT       FAIR      29  16  60 CALM      30.13S
$$

COZ041-046-047-076>085-087-088-230900-
...PIKES PEAK/PALMER DIVIDE AND SOUTHERN FOOTHILLS...

CITY           SKY/WX    TMP DP  RH WIND       PRES   REMARKS
COLO. SPRINGS  FAIR      25   8  48 E9        30.11S WCI  15
A. F. ACADEMY  FAIR      24   3  39 CALM      30.10R
SCHRIEVER AFB  FAIR      23   6  47 CALM      30.12R
CHEYENNE MTN   FAIR      24   3  40 N7        30.03S WCI  16
ELLICOTT         N/A    N/A N/A N/A CALM      30.10R
FALCON         FAIR      21   3  46 CALM      30.11S
FORT CARSON    FAIR      20   8  61 NW7       30.09R WCI  11
LIMON          FAIR      18   9  68 W7        30.11R WCI   9
MONUMENT HILL  MOCLDY    21   5  49 S7        30.10R WCI  13
CANON CITY     FAIR      28  10  47 W13       30.12S WCI  18
WALSENBURG     NOT AVBL
TRINIDAD       FAIR      14   4  64 NW13      30.12F WCI   0
$$

COZ042>045-048>051-090-091-230900-
...NORTHEAST COLORADO...

CITY           SKY/WX    TMP DP  RH WIND       PRES   REMARKS
GREELEY ARPT   FAIR      23  18  81 NW5       30.13R WCI  17
AKRON          FAIR      17   9  70 W13       30.10S WCI   4
BURLINGTON     FAIR      18   7  62 NW10      30.11S WCI   6
WRAY           FAIR      18  10  73 W6        30.12S WCI   9
YUMA           FAIR      19  10  68 W12       30.10S WCI   7
STERLING       CLOUDY    32  21  64 NW17      30.10R WCI  21
HOLYOKE        FAIR      30  18  59 NW17G24   30.09S WCI  18
FORT MORGAN    FAIR      21  12  67 W7        30.13R WCI  13
$$

COZ086-089-092>099-230900-
...SOUTHEAST COLORADO...

CITY           SKY/WX    TMP DP  RH WIND       PRES   REMARKS
PUEBLO         FAIR      26  12  55 E3        30.12F
LA JUNTA       FAIR      29  10  45 S6        30.14F WCI  23
LAMAR          FAIR      11   7  84 W7        30.15S WCI   0
SPRINGFIELD      N/A     13   6  74 NW9       30.14S WCI   1
$$




USA.gov is the U.S. government's official web portal to all federal, state and local government web resources and services.